GFSGBSN_prec_cloud_135.txt.gz
Cloud_Cover
100 100 100 100 100 100 100 100 100 100 100 100 100 100 74 79 24 84 75 100 99 52 8 5 5 16 70 97 100 62 100 94 89 100 100 100 98 59 45 24 2 5 5 4 3 0 0
100 100 100 100 100 100 100 100 100 100 100 100 100 100 99 22 79 44 67 99 100 100 33 19 5 52 8 88 64 22 26 99 100 84 99 40 6 92 92 29 7 5 5 5 5 5 3
100 95 100 100 100 100 100 100 98 100 100 86 100 93 98 6 18 35 5 55 97 17 100 100 90 13 35 100 80 19 53 78 24 11 33 5 5 94 100 100 100 63 40 5 5 45 5
5 99 100 100 94 100 100 100 100 93 100 100 100 100 100 9 63 44 43 5 29 23 25 96 38 87 8 100 100 88 15 5 5 6 10 5 5 5 70 76 96 18 13 12 49 8 23
84 11 8 100 99 98 71 100 100 100 100 100 100 100 100 100 100 97 70 58 90 100 28 93 53 35 80 93 82 100 100 38 44 68 70 61 75 84 61 9 9 72 28 10 46 96 100
100 100 96 100 39 100 100 86 100 100 100 100 100 100 100 100 100 100 100 95 100 100 100 58 40 24 77 89 91 100 100 100 9 8 62 12 6 6 22 6 44 32 40 98 100 100 100
100 100 100 100 100 100 100 100 100 100 84 100 100 100 100 100 100 100 100 100 100 100 100 100 64 100 31 5 70 41 100 100 98 41 16 57 5 5 5 5 15 100 100 100 100 100 92
100 100 100 100 100 100 100 100 100 95 100 100 100 100 100 90 100 100 100 100 100 83 97 100 54 42 68 17 99 100 100 100 100 100 76 21 22 5 5 5 5 5 37 100 100 100 100
63 100 100 100 100 100 100 39 94 100 100 100 100 100 100 100 100 100 100 100 100 100 100 100 100 100 100 98 68 86 41 60 100 34 54 8 24 5 3 5 21 92 88 100 34 4 6
5 13 100 100 5 100 100 94 100 100 100 100 100 100 100 100 100 86 93 100 78 99 96 100 100 82 96 97 78 83 6 95 99 82 58 55 74 5 5 0 0 1 1 5 5 44 11
4 5 2 4 0 68 79 100 100 100 100 100 100 100 100 100 100 100 100 97 100 80 45 98 5 88 66 27 22 57 56 62 84 53 91 62 63 76 5 5 1 0 5 12 100 100 20
5 5 5 5 5 3 5 99 100 100 100 100 100 100 100 100 100 100 100 100 100 100 61 5 12 18 95 73 9 13 37 34 14 80 82 94 100 91 38 89 11 25 89 100 100 92 86
3 5 1 5 5 4 63 65 100 100 100 100 100 100 100 100 100 100 100 100 100 100 66 100 100 100 21 99 100 55 6 84 94 94 100 99 100 92 91 83 100 94 92 100 100 100 100
1 5 5 5 95 100 100 100 100 100 100 100 100 100 100 100 100 100 100 100 100 100 71 13 82 98 76 42 28 31 19 72 100 96 100 99 100 73 69 60 80 90 100 100 63 13 3
4 5 5 14 82 2 0 0 1 65 100 100 100 100 100 100 100 100 100 100 100 100 100 100 100 90 96 71 66 11 34 37 87 100 96 100 100 100 98 100 100 94 72 44 5 10 74
5 5 24 92 0 4 0 0 98 87 100 100 100 100 100 100 100 100 100 100 100 100 100 100 100 100 100 100 100 94 38 6 97 100 100 90 100 100 100 100 94 100 51 11 5 38 34
45 25 98 84 44 22 42 100 100 100 100 100 100 100 100 100 100 100 100 100 100 100 100 100 100 100 100 100 100 97 22 32 82 100 100 100 100 100 92 40 48 68 92 68 17 38 94
92 68 100 100 70 100 100 100 100 100 100 100 100 100 100 100 100 100 100 100 100 100 100 100 100 100 100 83 100 99 97 100 100 100 100 100 100 100 100 98 75 100 71 100 21 46 97
100 100 100 100 100 100 100 100 100 100 100 100 100 100 100 100 100 100 100 100 100 100 100 100 100 100 100 100 100 100 100 100 100 100 86 100 100 100 100 100 98 100 100 44 7 81 94
100 100 100 100 100 91 100 100 100 100 100 100 100 100 100 100 100 100 100 100 100 100 100 100 100 100 100 100 100 100 100 99 96 100 100 100 100 100 100 100 100 100 99 67 42 87 55
100 100 100 100 100 100 100 100 100 100 100 100 100 100 33 99 100 100 100 100 100 100 100 100 100 100 100 100 100 100 100 88 100 100 100 100 100 100 100 100 100 100 100 100 76 5 68
100 100 100 100 100 100 100 100 100 100 100 100 100 99 84 99 100 100 100 100 100 100 100 100 100 100 100 100 100 100 99 100 100 100 100 100 100 100 100 100 100 100 100 90 6 5 65
100 100 100 100 100 100 100 100 100 100 100 100 100 100 100 100 100 100 100 100 100 100 100 100 100 100 100 100 97 100 100 100 100 100 100 100 100 100 100 100 100 100 23 5 5 5 52
100 100 100 100 100 100 100 100 100 100 100 100 100 100 100 100 100 100 100 100 100 100 100 100 100 100 80 100 100 100 100 100 100 100 100 100 100 100 100 100 90 9 5 5 5 53 78
100 100 100 100 100 100 100 100 100 100 100 100 100 100 100 100 100 100 100 100 100 100 100 100 100 100 100 100 100 100 100 100 100 100 89 100 100 100 100 100 14 89 43 5 5 40 90
100 100 100 100 100 100 100 100 100 100 100 100 100 100 100 100 100 100 100 100 100 100 100 100 100 100 99 97 97 100 100 100 100 100 100 100 100 100 100 100 21 88 48 23 25 32 85
100 100 100 100 100 100 100 100 100 100 100 100 100 100 100 100 100 100 100 100 100 98 100 100 100 84 100 100 100 100 100 100 100 100 100 100 100 100 100 100 100 100 100 12 34 4 11
100 100 100 100 100 100 100 100 100 100 100 100 100 100 100 100 100 100 100 100 100 100 100 97 100 100 100 100 100 100 100 100 100 100 100 100 100 100 100 100 100 100 5 5 4 5 6
100 100 100 100 100 100 100 100 100 100 100 100 100 100 100 100 100 100 100 100 100 100 100 100 100 100 100 100 100 100 100 100 100 100 100 100 100 100 100 100 100 66 5 5 5 5 39

GFSGBSN_prec_cloud_138.txt.gz
Cloud_Cover
100 100 100 100 100 100 99 100 100 100 100 100 100 92 48 89 11 28 22 31 30 56 62 99 100 100 99 90 9 10 98 100 100 100 55 49 88 71 72 49 69 97 98 100 100 81 73
92 40 100 100 100 100 100 86 100 100 100 100 100 100 100 100 100 100 100 100 100 5 22 72 100 62 100 100 80 68 68 100 100 100 100 83 87 97 100 100 99 100 12 6 93 95 96
99 68 100 100 100 100 94 100 99 99 100 100 100 100 100 100 100 100 48 100 100 99 96 5 94 85 46 100 61 89 64 49 55 94 100 100 100 98 70 78 99 16 1 0 28 89 77
100 100 100 100 92 100 100 98 100 100 100 100 100 100 100 100 100 86 100 100 100 74 97 21 88 53 84 86 97 36 92 97 100 100 71 97 44 13 54 10 5 5 5 5 5 5 21
99 100 100 99 88 53 100 100 88 100 100 100 100 100 98 100 100 100 100 100 100 100 100 72 7 18 93 84 100 97 100 99 93 100 100 100 100 100 67 15 12 5 5 4 1 0 1
48 100 100 100 100 100 35 99 93 100 100 100 100 94 100 100 100 100 100 100 100 100 100 100 98 81 89 100 82 87 62 99 93 56 33 23 86 100 100 100 57 12 10 5 5 1 4
71 100 100 96 80 100 100 100 100 100 100 100 100 100 100 99 100 100 100 100 100 100 100 100 98 100 96 100 100 100 100 98 97 86 75 17 17 85 100 96 100 100 12 5 2 0 13
30 92 100 100 100 100 100 100 100 100 100 100 100 100 100 100 100 100 90 85 43 92 100 100 100 100 8 91 100 100 84 62 19 50 15 11 21 76 88 95 27 5 5 6 5 2 0
100 100 97 98 100 100 100 100 100 100 100 100 100 100 100 100 100 100 99 94 100 80 67 100 95 96 28 43 71 46 8 81 10 7 24 56 68 13 12 54 70 5 40 5 0 2 0
100 100 100 100 100 100 100 100 100 100 100 100 100 100 100 100 100 100 100 100 100 100 100 16 76 51 97 100 100 100 96 82 100 100 99 73 98 88 42 8 53 11 5 1 0 0 0
99 100 100 100 100 100 100 100 100 100 100 100 100 100 100 100 100 100 100 100 100 100 100 5 86 100 98 100 100 100 100 99 96 20 53 48 5 6 33 11 4 5 5 5 15 57 13
68 100 90 8 100 100 100 100 100 100 100 100 100 100 100 100 100 100 100 100 100 100 100 12 27 100 100 11 87 81 14 5 5 12 5 5 5 5 5 5 5 5 5 5 5 40 84
3 4 5 1 1 75 10 68 100 100 100 100 100 100 100 100 100 100 100 100 100 100 100 98 1 96 97 100 69 44 97 51 68 61 5 5 4 5 5 5 4 5 70 92 62 98 100
5 5 5 5 0 0 2 3 3 2 77 93 37 100 100 100 100 100 100 100 100 100 100 100 93 98 100 69 58 100 87 88 18 97 100 12 4 5 5 5 5 7 100 100 94 100 100
91 5 5 5 3 5 1 4 4 71 100 100 24 100 100 100 100 100 100 100 100 100 100 100 100 100 100 100 94 23 4 6 15 61 27 5 5 4 5 5 10 39 16 99 100 100 82
5 6 60 5 5 5 5 7 10 39 64 100 100 100 100 100 100 100 100 100 100 100 100 100 100 100 100 100 100 32 31 49 61 70 94 36 4 4 5 5 5 5 63 100 100 100 84
5 0 2 9 9 5 5 6 55 100 100 99 100 100 100 100 100 100 100 100 100 100 100 100 100 100 100 100 100 100 82 48 82 100 99 36 5 5 5 34 94 100 100 100 60 72 99
4 2 5 95 5 7 5 20 69 100 100 100 100 100 100 100 100 100 100 100 100 100 100 100 100 100 100 100 100 100 100 100 100 100 100 28 5 14 20 27 21 14 10 81 65 78 100
5 100 100 99 8 30 100 50 20 2 99 100 100 100 100 100 100 100 100 94 100 100 100 100 100 100 100 100 100 100 100 100 100 100 88 39 56 58 45 100 100 100 85 97 100 100 99
100 100 92 98 100 100 79 32 0 93 100 100 100 100 100 100 100 82 100 97 100 100 100 100 100 100 100 100 100 100 100 100 100 100 100 100 99 70 100 100 100 100 74 48 100 100 98
100 100 100 100 100 56 0 5 84 100 100 100 100 100 33 98 100 84 97 71 75 100 94 100 100 100 100 100 100 100 100 100 100 99 100 100 100 100 100 73 96 100 55 67 100 88 89
100 100 100 100 100 100 100 100 100 100 100 100 86 8 83 11 94 100 100 91 61 100 96 100 100 100 100 100 100 100 100 100 100 100 100 100 100 100 100 87 100 100 93 100 92 99 100
100 100 100 100 100 100 100 100 100 100 100 100 85 80 24 80 100 100 34 50 91 100 100 100 100 100 100 100 100 100 100 100 100 100 100 100 100 100 100 100 100 100 100 98 98 100 69
100 100 100 100 100 100 100 100 100 100 100 100 100 62 49 96 57 40 94 94 98 100 100 100 100 100 100 100 100 100 100 100 100 100 96 100 100 100 100 100 100 100 100 100 100 100 100
100 100 100 100 100 100 100 100 100 100 100 100 97 98 100 99 100 100 100 100 100 100 100 100 100 100 100 100 100 100 100 100 100 100 92 100 100 100 100 100 100 100 95 100 100 100 54
100 100 100 100 100 100 100 100 100 100 100 100 100 100 100 100 100 100 100 100 100 100 100 100 100 100 100 100 100 100 100 100 100 100 100 100 100 100 100 100 100 100 100 99 100 100 5
100 100 100 100 100 100 100 100 100 100 100 100 100 100 100 100 100 100 100 100 100 100 100 100 100 100 100 100 100 100 100 100 100 92 100 100 100 100 100 100 99 100 100 97 71 61 5
100 100 100 100 100 100 100 100 100 100 100 100 100 100 100 100 100 100 100 100 100 100 100 100 100 100 76 100 100 91 100 96 100 100 100 100 100 100 100 100 100 100 100 99 64 5 5
100 100 100 100 100 100 100 100 100 100 100 100 100 100 100 100 100 100 100 100 100 100 100 100 100 100 100 100 100 100 100 100 100 100 100 100 93 100 100 100 100 100 97 29 5 5 10

GFSGBSN_prec_cloud_141.txt.gz
Cloud_Cover
100 100 100 100 100 100 100 100 100 100 100 100 100 100 100 100 100 100 70 7 5 5 49 64 91 18 88 27 48 8 52 98 78 37 38 71 100 82 100 94 99 95 14 38 41 99 100
100 100 100 100 100 100 100 100 100 97 99 100 100 90 78 99 100 100 100 100 100 38 46 48 52 100 83 5 73 100 77 70 100 49 59 56 65 100 100 48 76 91 5 24 41 85 14
100 100 100 100 100 100 100 100 100 100 98 84 100 100 100 100 78 92 100 100 100 100 87 100 99 100 84 100 48 26 100 96 99 36 78 35 75 100 100 100 100 55 21 47 22 8 4
100 100 100 43 100 99 98 100 100 100 100 100 100 100 100 100 78 23 50 100 100 100 100 100 75 100 100 93 74 65 52 15 100 100 100 71 93 98 100 100 100 99 93 96 80 16 20
100 100 100 100 100 87 70 95 96 100 100 100 100 100 100 100 99 97 46 97 61 14 76 100 70 97 100 100 77 100 83 100 100 100 100 100 100 100 100 100 100 100 100 100 100 22 32
46 91 100 100 100 100 100 100 65 22 92 100 100 99 100 100 100 100 96 72 72 97 72 86 54 33 100 100 100 65 100 100 100 100 100 100 100 100 100 100 51 62 79 100 100 16 99
6 6 51 95 100 21 41 100 95 84 56 93 100 100 100 100 100 100 100 100 100 22 96 59 100 93 100 100 100 100 99 100 100 100 100 100 100 100 100 47 43 22 5 45 85 52 5
5 22 27 14 43 82 50 100 61 100 90 31 94 100 100 100 100 100 100 100 100 100 75 96 100 100 100 98 32 100 100 100 100 100 100 100 100 97 33 43 6 6 52 53 71 40 22
5 98 13 54 16 100 100 76 90 100 100 100 100 100 100 100 100 100 100 100 100 100 97 63 80 56 97 24 88 26 88 83 82 98 100 100 87 100 64 75 13 8 35 5 14 82 24
100 100 100 87 20 5 56 45 6 5 70 100 100 100 100 100 100 100 100 100 100 100 100 58 99 100 5 37 12 5 100 94 97 62 70 99 100 98 85 6 71 39 27 26 16 36 41
100 100 100 100 100 100 100 100 46 75 98 95 100 100 100 100 100 100 100 100 100 100 100 100 64 100 100 5 14 100 78 100 100 100 82 15 82 82 66 35 68 6 29 92 37 20 0
87 100 100 100 100 100 100 100 100 100 98 100 100 100 100 100 100 100 100 100 100 100 100 100 100 100 100 99 6 10 5 58 93 82 81 60 100 76 98 90 20 18 33 5 5 4 1
26 15 9 4 60 100 100 98 100 100 100 100 100 100 100 100 100 100 100 100 100 100 100 100 100 100 100 72 62 40 6 88 66 93 77 94 87 100 98 98 16 5 5 5 3 0 43
78 0 5 17 32 5 6 5 9 86 11 98 100 100 100 100 100 100 100 100 100 100 100 100 100 100 100 72 100 100 100 100 48 5 16 100 100 50 100 82 5 5 3 5 4 39 58
36 6 0 5 5 9 31 5 5 5 39 19 99 51 100 100 100 100 100 100 100 100 100 100 100 100 100 100 100 100 100 100 94 5 5 20 10 5 5 5 4 3 0 4 5 5 0
11 59 64 5 1 5 49 24 29 98 85 79 100 75 100 100 100 100 100 100 100 100 100 100 100 100 100 100 100 100 100 100 100 100 54 4 3 4 3 5 2 5 3 25 5 35 4
96 59 14 5 2 0 2 2 67 100 28 100 86 100 99 100 100 100 100 100 80 100 100 100 100 100 100 100 100 100 100 100 100 100 100 6 7 5 5 11 49 6 5 30 86 82 99
5 5 4 5 4 2 0 0 2 76 100 100 100 100 100 100 100 100 100 98 42 90 99 100 100 100 100 100 100 100 100 100 100 100 100 100 98 22 72 100 89 24 44 93 100 74 99
4 4 5 5 5 0 2 4 14 18 100 100 100 100 100 100 100 99 79 100 100 100 100 86 100 99 100 100 100 100 100 100 100 100 100 100 100 100 100 100 100 91 42 99 96 81 100
5 6 5 5 5 8 44 98 86 43 82 100 100 99 100 100 9 70 96 65 100 89 100 91 19 100 100 100 100 100 100 100 100 100 100 100 100 100 100 100 99 96 10 87 14 51 91
100 24 21 6 91 100 100 100 100 100 98 100 100 96 29 100 100 13 68 37 100 100 79 89 100 66 100 100 100 100 100 100 100 100 100 100 100 100 100 100 99 100 8 90 100 99 44
76 100 100 100 100 100 100 100 100 100 100 100 100 98 85 60 77 100 97 84 100 100 94 69 81 63 100 100 100 100 100 100 100 100 100 100 100 100 100 82 100 100 25 93 100 100 16
100 100 100 100 100 100 100 100 100 100 100 100 100 72 93 39 99 100 83 6 24 100 93 86 100 100 100 100 100 100 100 100 100 100 100 100 100 100 100 100 100 51 86 80 95 100 100
100 100 100 100 100 100 100 100 100 100 37 87 60 40 96 91 58 28 35 94 100 100 99 100 100 99 100 100 100 100 100 100 100 100 100 100 100 100 100 100 95 95 100 85 100 100 100
100 100 100 100 100 100 100 100 100 100 3 92 100 100 97 38 57 98 96 89 100 100 100 100 100 97 98 100 100 100 100 100 100 100 100 100 100 100 93 56 81 99 100 100 100 100 100
100 100 100 100 100 100 100 100 100 100 100 100 100 100 93 82 94 40 99 100 100 99 100 100 100 76 100 100 100 100 100 100 100 100 100 100 100 100 100 96 100 73 100 100 100 100 100
100 100 100 100 100 100 100 100 100 100 100 100 100 100 100 100 100 100 81 94 100 87 80 51 96 100 100 100 100 100 100 100 100 100 100 100 100 100 100 100 97 96 100 100 100 98 66
100 100 100 100 100 100 100 100 100 100 100 100 100 100 100 100 100 100 100 100 100 95 100 100 100 100 100 100 100 100 100 100 100 100 100 100 100 100 100 98 100 100 100 100 100 100 100
100 100 100 100 100 100 100 100 100 100 100 100 100 100 100 100 100 100 100 100 100 100 100 100 100 100 100 100 100 100 100 100 100 100 100 73 89 100 100 100 100 100 100 100 100 100 100

GFSGBSN_prec_cloud_144.txt.gz
Cloud_Cover
100 100 100 100 100 100 100 100 100 100 100 100 100 100 100 100 100 100 100 100 100 100 84 5 55 9 5 75 76 56 10 35 23 5 46 7 7 70 5 14 98 100 54 65 98 100 100
100 100 100 100 100 100 100 100 100 100 100 100 100 100 100 100 100 75 52 27 29 74 44 100 88 95 9 6 14 5 5 18 15 36 40 6 30 30 28 10 84 97 100 100 100 46 54
100 84 50 100 100 100 100 100 100 100 100 100 100 100 100 100 100 100 22 88 53 50 5 7 100 100 100 99 91 95 99 100 100 21 6 38 49 29 54 6 19 96 100 100 100 95 100
100 100 82 59 82 100 100 100 100 100 100 100 100 100 100 100 100 100 100 69 80 55 96 13 5 25 100 100 100 100 100 100 100 14 45 46 15 19 7 45 38 8 92 100 100 100 100
100 100 80 91 83 81 100 100 100 100 100 100 100 100 100 100 100 100 99 100 75 92 5 5 12 5 4 74 92 100 100 100 100 100 5 13 33 100 93 86 86 53 90 100 100 100 100
100 100 100 94 86 100 100 100 99 95 100 100 100 100 100 100 100 100 99 96 75 57 67 84 19 53 5 16 18 27 100 100 100 100 100 83 68 100 100 100 99 100 99 100 78 80 100
97 100 100 100 5 95 82 9 11 59 5 62 100 100 100 100 100 100 100 100 79 100 100 98 8 5 5 57 55 97 4 77 100 100 100 54 100 100 100 100 100 100 100 100 100 83 14
24 99 100 100 19 31 48 59 5 5 3 5 36 100 100 100 100 100 100 100 100 100 57 100 67 69 36 78 15 7 95 100 84 100 100 100 97 100 100 100 100 100 100 100 100 86 68
100 35 54 48 55 69 27 48 51 5 9 85 99 44 22 100 100 100 100 100 100 100 99 58 100 65 80 14 95 63 90 86 100 100 86 100 100 100 100 100 100 100 100 100 100 26 26
100 100 74 52 89 100 100 81 65 86 34 5 99 100 100 100 100 100 100 100 100 100 100 49 100 100 5 100 100 100 100 100 34 80 5 82 58 99 100 84 32 100 100 100 93 6 14
82 100 50 100 78 5 47 95 100 43 100 7 10 100 100 100 100 99 99 100 100 100 100 80 95 100 100 100 97 100 86 100 47 10 4 35 58 97 84 5 69 14 28 19 69 83 61
100 85 100 100 100 100 100 100 100 100 100 100 53 100 100 100 100 100 100 100 100 100 100 15 98 94 100 99 100 91 60 76 100 93 3 76 25 99 5 54 100 75 61 14 90 89 47
100 100 100 100 100 100 100 100 100 100 100 100 100 100 100 100 100 100 100 100 100 100 83 25 43 1 99 100 100 100 84 100 100 98 77 18 4 76 25 18 19 95 100 98 94 94 83
56 19 48 78 48 100 100 39 100 100 100 100 100 100 100 100 100 100 100 100 100 69 73 77 23 83 100 100 100 100 100 100 100 100 100 2 5 60 100 45 26 32 13 48 8 16 31
95 86 77 80 80 5 31 5 84 58 70 89 90 52 74 100 100 100 100 100 100 100 99 53 94 85 100 100 100 100 100 100 100 100 96 100 71 35 93 100 0 5 22 5 5 5 5
5 5 66 68 5 11 84 5 5 65 99 90 21 75 81 79 100 100 100 100 100 100 100 100 100 48 98 100 100 100 100 100 100 100 100 100 100 100 100 99 100 9 23 5 5 0 5
5 5 4 5 5 76 80 56 5 37 84 94 85 100 10 34 100 100 100 100 58 10 98 100 100 100 100 100 100 100 100 100 100 100 100 100 100 74 100 100 95 99 95 61 4 5 20
5 2 1 0 3 8 5 26 5 8 100 97 100 100 74 100 100 100 100 12 6 5 36 86 100 100 98 100 100 100 100 100 100 100 100 100 100 100 100 100 100 100 35 49 5 95 54
4 5 4 0 5 0 2 5 5 5 30 78 100 100 100 97 100 84 24 38 5 94 98 68 92 76 100 100 100 100 100 100 100 100 100 100 100 100 100 100 100 98 100 100 100 15 26
5 5 3 1 0 2 2 2 2 5 1 73 100 100 100 100 7 15 22 56 42 5 56 100 99 99 77 100 100 100 100 100 100 100 100 100 100 100 100 100 100 100 100 100 99 74 99
5 5 89 72 20 6 5 5 5 5 1 91 100 100 83 100 98 6 5 5 47 62 79 49 98 99 100 99 99 100 84 100 100 100 100 100 100 100 100 100 100 100 100 100 100 100 100
5 52 100 100 99 24 5 5 5 5 39 100 100 99 86 100 6 50 33 5 5 52 88 38 34 39 82 95 9 3 88 100 100 100 100 100 100 100 100 100 100 100 100 100 100 100 100
5 95 74 27 49 16 34 16 24 100 98 100 97 17 44 3 78 81 24 4 3 18 14 21 24 98 100 27 80 100 77 100 100 100 100 100 100 100 100 100 100 100 100 100 100 100 71
100 100 100 100 100 100 100 100 100 100 100 100 100 30 42 91 4 44 5 5 5 16 5 99 85 99 29 100 100 100 100 35 100 100 100 100 100 100 100 100 100 100 100 100 100 100 100
100 100 100 100 100 100 100 100 100 100 100 100 100 98 20 5 48 63 5 13 5 58 100 18 41 2 100 74 100 100 100 100 100 100 100 100 100 100 100 100 100 100 100 100 100 100 46
100 100 100 100 100 100 100 100 100 100 100 100 100 50 98 6 1 5 96 100 34 5 67 64 87 100 100 100 99 92 100 97 97 100 100 100 100 100 100 100 100 100 100 100 100 73 76
100 100 100 100 100 100 100 100 100 100 100 100 100 66 56 65 3 3 68 4 15 25 77 96 100 100 100 100 100 100 100 100 88 100 86 100 100 100 100 100 100 100 100 100 100 97 100
100 100 100 100 100 100 100 100 100 100 100 100 100 74 10 18 5 72 100 54 17 100 97 93 100 100 100 100 100 96 89 48 96 100 100 100 100 100 100 100 100 100 100 93 76 85 100
100 100 100 100 100 100 100 100 100 100 100 100 100 99 57 99 100 75 100 94 68 89 56 10 15 95 97 98 100 100 100 100 100 100 100 100 100 100 100 100 100 100 92 100 65 84 100

GFSGBSN_prec_cloud_147.txt.gz
Cloud_Cover
55 50 62 100 100 100 100 100 100 100 100 100 100 100 100 100 100 100 100 100 100 94 62 13 5 25 40 3 5 5 5 5 5 5 5 5 5 5 5 4 5 5 100 76 100 48 70
80 96 71 97 100 100 100 100 100 100 100 100 100 100 100 100 100 100 100 100 100 100 100 100 100 66 84 74 40 4 5 5 5 22 6 13 5 25 21 5 5 5 82 49 90 88 69
100 100 64 98 92 100 100 100 100 100 100 100 100 100 100 100 100 100 100 100 100 100 100 100 6 5 5 5 1 2 0 6 97 99 100 100 100 100 41 10 7 5 5 72 5 22 100
100 92 94 100 100 73 100 100 100 100 100 100 100 100 100 100 100 100 100 100 100 100 100 100 100 100 89 21 4 5 5 1 4 73 100 100 100 100 100 100 89 4 5 57 20 44 100
100 100 75 89 91 97 86 91 100 90 42 100 100 100 100 100 100 100 100 100 100 100 100 100 100 100 100 8 5 3 2 5 2 3 32 100 100 100 100 100 33 9 53 34 72 100 100
100 82 99 100 100 100 100 95 100 100 97 20 95 100 100 100 100 100 100 100 100 100 100 100 82 100 95 25 5 5 2 4 5 5 5 6 100 100 100 100 82 63 100 84 100 100 100
100 93 33 7 31 97 85 94 100 100 89 62 76 48 30 98 100 100 100 100 100 100 100 98 32 94 100 98 6 100 45 5 4 13 3 4 5 66 100 100 100 51 91 100 100 100 100
100 98 76 14 48 75 28 14 53 100 99 100 99 100 61 6 94 100 100 100 100 86 100 69 60 100 100 100 9 11 16 46 11 80 27 5 7 4 21 86 100 100 52 100 100 97 96
100 100 96 100 89 100 100 100 83 76 75 39 100 100 99 87 100 100 100 100 100 100 99 38 36 5 43 38 26 9 5 100 8 30 100 91 23 50 61 92 100 100 100 92 100 100 45
100 100 100 96 100 100 95 100 100 97 100 90 47 100 100 100 100 100 100 100 100 97 100 6 18 5 14 5 3 5 22 5 13 5 91 8 99 11 89 22 8 100 100 100 18 26 52
100 100 100 100 100 100 94 100 100 100 100 100 95 100 100 100 100 100 81 100 100 91 100 0 5 93 100 54 10 5 5 5 72 91 5 59 99 70 4 5 5 24 97 8 2 5 2
100 100 100 100 100 100 100 100 100 100 100 100 100 100 100 100 100 100 100 100 100 100 63 0 5 100 100 100 100 100 100 98 56 99 94 19 96 100 24 20 5 43 67 29 32 3 4
100 100 100 100 100 100 100 100 100 100 100 100 100 74 100 100 100 100 100 100 100 94 13 2 10 92 100 100 100 100 100 99 100 26 58 100 100 28 23 9 72 100 18 61 57 8 100
100 100 100 100 100 100 100 100 100 100 99 100 100 100 100 100 100 100 100 100 100 100 100 33 100 91 28 100 100 100 100 100 95 100 100 100 100 100 100 20 7 69 1 3 88 100 99
100 100 100 100 100 100 100 100 100 98 100 100 100 100 100 100 100 100 100 100 100 83 100 100 100 100 100 100 100 100 100 100 100 100 100 100 100 100 100 100 100 100 6 43 27 3 5
100 100 100 100 100 100 100 100 100 100 100 100 95 93 80 100 100 100 100 100 99 100 100 100 100 100 100 100 100 100 100 100 100 100 100 100 100 100 100 100 100 100 100 100 37 58 19
98 80 6 86 82 13 2 5 16 97 100 58 95 100 3 13 89 100 100 88 5 92 100 100 100 100 100 100 100 100 100 100 100 97 100 100 73 100 100 100 100 100 100 95 100 100 100
93 6 5 5 1 2 0 2 5 6 99 100 100 100 50 99 100 100 100 4 64 76 100 100 94 34 100 100 100 100 100 100 100 100 100 100 100 100 100 100 100 100 100 100 100 100 72
5 5 4 5 5 0 0 0 2 5 89 75 98 100 43 100 100 100 69 5 2 0 0 3 37 5 32 100 100 100 98 100 100 100 100 100 100 100 100 100 100 100 100 100 100 100 100
5 5 5 5 5 5 4 1 2 5 98 100 100 100 100 100 93 58 5 5 5 1 0 5 5 5 5 94 100 100 85 100 100 100 100 100 100 100 100 100 100 100 100 100 100 100 100
5 5 5 5 5 5 5 5 0 5 5 100 100 63 100 90 100 100 14 5 5 5 4 4 83 9 6 63 16 60 48 100 100 98 100 100 100 100 100 100 100 100 100 100 100 100 100
5 5 5 5 4 5 5 8 4 5 10 100 100 91 37 100 76 99 6 76 46 3 5 5 1 0 5 84 8 13 2 52 98 100 100 100 100 100 100 100 100 100 100 100 100 100 100
5 5 16 5 5 5 5 15 52 5 99 100 100 7 69 12 96 92 77 4 0 0 1 0 1 0 4 0 4 5 5 13 48 25 100 100 100 100 100 100 100 100 100 100 100 100 100
78 74 20 22 56 100 97 58 92 100 100 100 86 23 93 51 31 99 50 5 0 0 0 2 3 2 0 0 60 100 16 100 82 70 46 100 100 100 100 100 100 100 100 100 100 100 100
100 100 100 100 100 97 69 22 9 6 51 99 90 65 99 90 5 8 96 84 59 10 5 0 37 2 4 7 100 100 100 100 100 80 68 100 100 100 100 100 100 100 100 100 100 100 100
100 100 100 100 100 100 100 100 100 100 100 100 100 48 100 65 12 1 7 91 10 3 4 5 5 83 52 100 100 98 96 72 61 93 90 100 100 100 87 100 100 100 100 100 100 100 100
100 100 100 100 100 100 100 100 100 100 100 100 100 100 100 100 3 0 31 4 8 5 0 0 4 5 80 98 88 100 99 29 8 9 80 40 93 99 100 100 100 100 100 100 100 100 100
100 100 100 100 100 100 100 100 100 100 100 100 100 100 100 100 61 0 0 2 54 36 5 1 13 61 99 100 92 99 49 5 5 24 5 54 100 85 96 100 100 100 64 97 100 100 100
100 100 100 100 100 100 100 100 100 100 100 100 100 100 100 100 97 5 0 0 1 11 19 5 6 18 49 100 100 96 11 5 5 5 37 75 99 100 100 100 100 99 100 100 100 100 100

GFSGBSN_prec_cloud_150.txt.gz
Cloud_Cover
100 100 100 100 100 100 100 100 100 100 100 100 100 100 100 99 98 98 100 100 100 100 100 100 100 100 100 50 5 5 2 5 5 3 5 5 5 6 5 5 4 5 5 2 2 5 12
100 75 100 77 100 96 99 100 100 100 100 100 100 100 100 100 100 100 100 100 100 100 100 100 100 100 100 100 96 82 41 6 5 5 5 33 34 5 5 5 28 89 60 5 5 50 92
100 100 100 100 34 29 53 70 100 100 100 80 100 100 100 100 100 100 100 100 100 100 100 100 100 100 100 100 100 100 100 36 5 5 0 2 0 0 9 75 100 100 96 5 5 5 86
100 95 61 100 100 100 84 98 57 13 42 100 100 100 100 100 100 100 100 100 100 100 100 100 100 100 100 100 100 100 100 100 5 0 1 5 4 10 5 48 100 100 100 100 15 5 20
100 100 80 100 82 99 94 66 100 26 5 5 29 67 100 100 100 100 100 100 100 100 100 87 100 100 100 100 100 100 100 100 73 20 5 5 2 2 4 4 4 47 100 100 100 98 94
100 100 100 100 51 99 100 100 99 100 80 8 38 100 100 100 100 100 100 100 100 100 100 100 98 100 100 100 42 14 100 100 96 90 2 1 5 3 0 3 5 5 5 100 100 100 100
100 100 100 100 100 100 97 100 100 100 100 99 68 100 100 100 100 100 100 100 100 100 100 100 97 67 100 100 99 5 33 100 100 100 100 20 33 15 4 5 5 5 5 5 66 100 100
100 100 100 100 100 100 100 100 100 85 80 25 59 94 100 100 100 100 100 94 99 100 100 100 100 100 100 90 7 23 5 6 72 100 57 90 80 3 4 27 17 0 5 40 8 59 89
100 100 100 100 100 100 100 100 100 100 100 100 100 96 98 97 99 100 100 100 100 99 76 68 32 20 100 11 100 100 63 86 95 90 99 5 52 9 4 2 28 6 4 8 72 5 3
100 100 100 100 100 100 100 100 100 100 100 100 98 100 100 100 100 96 100 100 100 100 40 62 85 5 23 28 75 100 99 99 98 99 80 5 94 5 5 4 5 5 5 63 8 0 5
100 100 100 100 100 100 100 100 100 100 100 100 99 100 100 100 100 100 100 100 100 100 100 99 100 57 56 81 9 93 94 10 63 100 100 15 90 52 5 16 21 5 5 6 46 1 5
100 100 100 100 100 100 100 100 100 100 100 100 100 100 100 100 100 100 100 100 100 100 82 34 100 100 100 100 100 91 100 84 5 80 100 100 100 100 96 9 5 80 87 100 41 91 5
100 100 100 100 100 100 100 100 100 100 100 100 100 100 100 100 100 100 100 100 100 100 92 84 100 100 100 100 100 100 100 100 95 30 100 100 100 94 91 100 100 100 100 76 13 52 99
100 100 100 100 100 100 100 100 100 100 100 100 100 100 100 100 100 100 100 100 100 100 100 100 100 74 21 100 100 100 100 100 100 96 100 100 100 100 100 100 100 92 100 100 100 100 86
100 100 100 100 100 100 100 100 100 100 100 100 100 100 100 100 100 100 100 100 100 100 100 97 93 13 20 94 100 100 100 100 100 100 100 100 100 100 100 100 100 100 27 100 100 91 16
100 100 100 100 100 100 100 100 100 100 100 100 100 99 100 100 94 100 100 100 84 100 98 95 98 98 100 94 100 100 100 54 100 100 100 100 100 100 100 100 100 100 100 100 100 100 100
43 100 100 100 100 100 100 100 100 100 100 100 99 97 87 100 74 100 100 85 19 48 73 100 80 98 73 100 100 100 99 55 87 100 100 100 100 100 100 100 100 100 100 100 100 100 98
98 100 100 100 100 100 100 100 100 100 100 100 100 99 100 100 100 100 100 100 90 97 88 32 99 87 99 93 100 100 81 96 100 100 100 100 100 100 100 100 100 100 87 100 100 100 100
5 5 85 100 99 74 84 100 100 100 100 100 100 84 94 94 99 100 100 98 88 100 100 62 83 98 100 100 74 90 90 96 100 100 100 100 100 100 100 100 100 100 100 100 100 100 100
39 27 18 54 76 5 5 29 61 100 100 100 100 98 34 100 52 22 91 78 39 61 5 3 4 2 11 35 4 5 5 99 100 100 100 100 100 100 100 100 100 100 100 100 100 100 100
38 67 99 80 5 41 5 5 21 26 82 100 100 93 5 30 100 70 34 90 18 50 2 3 4 4 36 5 5 5 55 95 100 100 100 100 100 100 100 100 100 100 100 100 100 100 100
5 0 5 5 5 5 5 5 5 5 5 100 98 98 16 12 89 100 67 95 10 5 4 5 5 0 0 5 5 0 6 100 100 100 100 100 100 100 100 100 100 100 100 100 100 100 100
5 5 5 5 5 5 6 25 20 46 100 98 100 9 100 12 0 97 35 79 5 8 0 0 4 5 5 1 2 5 42 24 95 100 100 99 100 100 100 100 100 100 100 100 100 100 100
5 5 5 50 5 7 5 59 91 17 25 15 66 51 100 76 5 18 87 100 89 93 75 15 58 5 0 0 0 0 4 60 100 100 100 9 81 100 100 100 100 100 100 100 100 100 100
5 5 43 55 57 100 93 47 44 98 100 100 75 77 100 99 13 5 4 100 100 100 88 12 4 0 5 0 8 44 76 47 44 100 96 99 100 100 100 100 100 100 100 100 100 100 100
100 100 96 100 100 89 89 100 40 89 70 100 100 100 100 100 26 2 5 14 100 79 69 5 3 1 31 100 99 98 73 5 73 89 100 100 100 93 100 100 55 100 100 100 100 100 100
100 100 100 100 100 100 100 100 99 68 75 100 100 96 100 100 6 5 5 5 1 50 100 12 9 11 33 94 100 86 82 57 70 49 91 100 100 98 100 100 6 28 11 100 100 100 100
100 100 100 100 100 100 100 100 100 100 100 100 100 97 100 100 70 8 3 66 100 100 100 29 93 30 70 76 99 91 95 87 89 18 20 99 84 88 100 100 66 38 16 45 100 100 100
100 100 100 100 100 100 100 100 100 100 100 100 100 100 100 100 89 40 4 69 98 99 100 82 0 0 0 35 96 100 92 5 4 5 5 5 6 96 74 36 93 76 100 100 100 100 100